EDT,Max TemperatureF,Mean TemperatureF,Min TemperatureF,Max Dew PointF,MeanDew PointF,Min DewpointF,Max Humidity, Mean Humidity, Min Humidity, Max Sea Level PressureIn, Mean Sea Level PressureIn, Min Sea Level PressureIn, Max VisibilityMiles, Mean VisibilityMiles, Min VisibilityMiles, Max Wind SpeedMPH, Mean Wind SpeedMPH, Max Gust SpeedMPH,PrecipitationIn, CloudCover, Events, WindDirDegrees
2013-10-1,77,68,59,63,60,53,94,82,58,30.02,29.98,29.94,10,8,2,21,10,24,0.00,5,,204
2013-10-2,82,72,61,63,58,48,100,74,25,30.10,30.05,29.99,10,6,0,10,2,15,0.00,3,Fog,211
2013-10-3,76,69,62,67,64,55,94,87,71,30.02,29.99,29.91,10,7,2,22,6,26,0.27,6,Rain-Thunderstorm,181
2013-10-4,80,73,65,69,66,61,90,79,66,30.02,29.98,29.94,10,10,10,14,6,18,0.00,3,,190
2013-10-5,79,73,66,70,67,63,94,86,67,29.99,29.92,29.83,10,8,2,25,8,33,0.49,5,Rain-Thunderstorm,176
2013-10-6,67,57,46,65,53,40,94,83,49,29.82,29.77,29.71,10,8,2,20,8,24,0.39,7,Rain,246
2013-10-7,61,53,44,47,43,39,86,74,50,30.14,29.93,29.77,10,10,10,20,9,24,T,5,,249
2013-10-8,73,59,45,50,45,41,83,62,36,30.25,30.20,30.14,10,10,10,13,7,18,0.00,0,,151
2013-10-9,71,59,46,46,44,42,86,61,31,30.30,30.23,30.18,10,10,10,12,4,16,0.00,0,,107
2013-10-10,74,60,45,50,46,43,89,64,30,30.22,30.16,30.10,10,10,9,10,2,13,0.00,0,,127
2013-10-11,75,60,45,48,45,42,86,60,26,30.14,30.08,30.03,10,10,6,12,5,14,0.00,0,,121
2013-10-12,78,65,52,61,53,47,90,67,36,30.14,30.05,30.01,10,10,7,18,8,23,T,2,Rain,165
2013-10-13,64,52,40,51,41,37,86,65,31,30.41,30.32,30.16,10,10,10,17,5,21,0.00,0,,328
2013-10-14,64,51,38,43,40,35,89,67,40,30.43,30.35,30.23,10,10,10,15,6,20,0.00,0,,64
2013-10-15,64,56,48,61,53,42,94,84,69,30.21,29.96,29.84,10,8,2,16,10,21,0.17,5,Rain,165
2013-10-16,60,53,45,59,46,41,88,79,66,29.96,29.91,29.85,10,10,8,16,9,21,0.00,6,,243
2013-10-17,52,47,42,46,44,39,93,82,66,29.95,29.88,29.82,10,10,5,20,10,25,0.11,7,Rain,238
2013-10-18,59,49,38,45,39,36,89,75,54,29.98,29.93,29.88,10,10,7,17,9,21,0.00,4,,238
2013-10-19,54,48,42,41,37,29,93,73,34,29.95,29.87,29.81,10,9,6,20,9,26,0.17,6,Rain,230
2013-10-20,62,51,39,42,38,35,83,61,37,29.93,29.86,29.81,10,10,10,23,11,32,T,4,,211
2013-10-21,56,48,40,46,38,26,86,70,53,29.96,29.89,29.84,10,10,10,18,11,26,0.02,7,Rain,263
2013-10-22,47,39,31,33,28,25,85,64,42,30.00,29.96,29.93,10,10,10,17,7,21,T,4,Rain,244
2013-10-23,44,39,33,36,33,26,92,73,53,30.02,29.95,29.86,10,9,2,20,8,28,0.27,8,Rain-Snow,277
2013-10-24,43,38,33,34,31,29,96,80,64,30.28,30.09,29.98,10,8,1,20,7,22,0.23,8,Rain-Snow,279
2013-10-25,48,38,28,33,28,23,92,65,38,30.40,30.30,30.15,10,10,7,20,8,29,0.03,3,Rain,230
2013-10-26,53,47,40,36,30,25,67,59,50,30.13,29.97,29.86,10,10,10,24,14,32,T,7,Rain,260
2013-10-27,54,43,31,34,30,27,89,62,35,30.10,30.06,30.02,10,10,10,18,6,21,0.00,1,,228
2013-10-28,59,46,32,37,32,27,82,63,43,30.38,30.24,30.10,10,10,10,9,2,14,0.00,0,,63
2013-10-29,55,45,35,39,35,30,89,70,51,30.41,30.32,30.22,10,10,10,13,7,16,0.00,1,,109
2013-10-30,63,50,37,57,48,35,93,82,71,30.20,30.06,29.87,10,6,1,15,6,20,1.00,6,Rain-Thunderstorm,111
2013-10-31,64,58,52,61,58,49,97,92,87,29.86,29.56,29.22,10,7,2,26,15,36,1.20,8,Rain,207